Back to catalog

TJS-5

AliveMilitaryGEO
NORAD 44978·PAYLOAD·🇨🇳 China

Launched Jan 7, 2020 from Xichang Satellite Launch Center

Loading…

TLE

FreshSource: Space-Track

Epoch: Sep 14, 2026, 16:01 UTC

1 44978U 20002A   26257.66766141 -.00000350  00000-0  00000+0 0  9993
2 44978   0.2188  83.1162 0007505 349.0160 269.3688  1.00269862 24602

Track TJS-5 in real time with AllMySat

Download on the App Store